Location: Firdgum
(53.2488°N, 5.5615°E)
Time: 21:35:23
(UTC+00:00)

Cosmos 1340 - Pass Details

Date: 08 December 2019
Orbit: 502 x 506 km, 81.2° (Epoch: 22 January)

Event Time Altitude Azimuth Distance (km) Brightness Sun altitude
Rises 05:20:55 0° 175° (S) 2,590 6.5 -19.2°
Reaches altitude 10° 05:23:05 10° 169° (S) 1,712 5.6 -18.9°
Maximum altitude 05:26:39 44° 97° (E) 710 3.8 -18.4°
Drops below altitude 10° 05:30:17 10° 24° (NNE) 1,729 5.5 -17.9°
Sets 05:32:28 0° 18° (NNE) 2,620 6.3 -17.6°
